Lewistown, MT

5:53 PM MDT on August 27, 2016 (GMT -0600)
Lewistown Municipal

Weather History for KLWT - October, 2011

Change the Weather History Date:

Wednesday, October 5, 2011

  Actual Average Record
Temperature  
Mean Temperature 59 °F 48 °F  
Max Temperature 75 °F 61 °F 87 °F (1905)
Min Temperature 43 °F 34 °F 12 °F (1916)
Degree Days  
Heating Degree Days 6 18  
Month to date heating degree days 10 84  
Since 1 July heating degree days 276 561  
Cooling Degree Days 0 0  
Month to date cooling degree days 5 0  
Year to date cooling degree days 215 210  
Growing Degree Days 8 (Base 50)    
Moisture  
Dew Point 43 °F    
Average Humidity 64    
Maximum Humidity 96    
Minimum Humidity 31    
Precipitation  
Precipitation 0.14 in 0.04 in 0.70 in (1908)
Month to date precipitation 0.14 0.22  
Year to date precipitation 18.83 14.57  
Snow  
Snow 0.00 in - - ()
Snow Depth 0.00 in    
Sea Level Pressure  
Sea Level Pressure 29.50 in    
Wind  
Wind Speed 8 mph (SE)    
Max Wind Speed 24 mph    
Max Gust Speed 37 mph    
Visibility 10 miles    
Events Rain    
T = Trace of Precipitation, MM = Missing Value Source: NWS Daily Summary

Daily Weather History Graph

Daily Weather History Graph

Search for Another Location

Airport or City:

Trip Planner

Search our weather history database for the weather conditions in past years. The results will help you decide how hot, cold, wet, or windy it might be!

Date:

Astronomy

Oct. 05, 2011 Rise Set
Actual Time 7:21 AM MDT 6:49 PM MDT
Civil Twilight 6:51 AM MDT 7:20 PM MDT
Nautical Twilight 6:16 AM MDT 7:55 PM MDT
Astronomical Twilight 5:40 AM MDT 8:31 PM MDT
Moon 3:52 PM MDT (10/5) 12:48 AM MDT (10/5)
Length of Visible Light 12h 28m
Length of Day
11h 28m
Waxing Gibbous, 67% of the Moon is Illuminated
Oct 5
Waxing Gibbous
Oct 11
Full
Oct 19
Last Quarter
Oct 26
New
Nov 2
First Quarter

Hourly Weather History & Observations

Time (MDT) Temp. Windchill Dew Point Humidity Pressure Visibility Wind Dir Wind Speed Gust Speed Precip Events Conditions
12:54 AM 46.9 °F - 41.0 °F 80% 29.59 in 10.0 mi WSW 6.9 mph - N/A   Clear
1:54 AM 45.0 °F 43.5 °F 41.0 °F 86% 29.60 in 10.0 mi East 3.5 mph - N/A   Clear
2:54 AM 46.9 °F - 41.0 °F 80% 29.60 in 10.0 mi SSW 5.8 mph - N/A   Partly Cloudy
3:54 AM 48.0 °F - 41.0 °F 77% 29.58 in 10.0 mi Calm Calm - N/A   Clear
4:54 AM 45.0 °F 41.8 °F 39.9 °F 82% 29.59 in 10.0 mi WSW 5.8 mph - N/A   Clear
5:54 AM 45.0 °F 42.6 °F 39.0 °F 80% 29.57 in 10.0 mi SSW 4.6 mph - N/A   Clear
7:54 AM 45.0 °F 41.8 °F 39.9 °F 82% 29.57 in 10.0 mi East 5.8 mph - N/A   Clear
8:54 AM 52.0 °F - 41.0 °F 66% 29.56 in 10.0 mi SE 8.1 mph - N/A   Mostly Cloudy
9:54 AM 57.9 °F - 42.1 °F 56% 29.56 in 10.0 mi SE 4.6 mph - N/A   Overcast
10:54 AM 60.1 °F - 41.0 °F 49% 29.53 in 10.0 mi East 8.1 mph - N/A   Mostly Cloudy
11:54 AM 64.9 °F - 41.0 °F 42% 29.49 in 10.0 mi Calm Calm - N/A   Clear
3:54 PM 72.0 °F - 39.9 °F 31% 29.38 in 10.0 mi East 17.3 mph 23.0 mph N/A   Clear
4:54 PM 72.0 °F - 41.0 °F 33% 29.38 in 10.0 mi East 15.0 mph 25.3 mph N/A   Clear
5:54 PM 70.0 °F - 39.9 °F 33% 29.38 in 10.0 mi ESE 15.0 mph - N/A   Mostly Cloudy
7:54 PM 64.0 °F - 43.0 °F 46% 29.39 in 10.0 mi East 13.8 mph - N/A   Clear
8:54 PM 63.0 °F - 46.0 °F 54% 29.41 in 10.0 mi SW 11.5 mph 36.8 mph 0.00 in   Mostly Cloudy
9:54 PM 55.9 °F - 48.0 °F 75% 29.42 in 10.0 mi West 9.2 mph - N/A   Mostly Cloudy
10:32 PM 53.6 °F - 50.0 °F 88% 29.49 in 2.0 mi Variable 5.8 mph 18.4 mph 0.13 in Rain Rain
10:40 PM 53.6 °F - 50.0 °F 88% 29.48 in 10.0 mi North 8.1 mph - 0.14 in Rain Light Rain
10:54 PM 53.1 °F - 50.0 °F 89% 29.41 in 10.0 mi NNW 3.5 mph - 0.14 in   Mostly Cloudy
11:54 PM 52.0 °F - 50.0 °F 93% 29.42 in 10.0 mi WNW 4.6 mph - N/A   Overcast